TimePST,TemperatureF,Dew PointF,Humidity,Sea Level PressureIn,VisibilityMPH,Wind Direction,Wind SpeedMPH,Gust SpeedMPH,PrecipitationIn,Events,Conditions,WindDirDegrees,DateUTC
12:56 AM,42.1,39.0,89,30.09,10.0,SSW,5.8,-,N/A,,Overcast,210,2012-02-14 08:56:00
1:56 AM,41.0,39.0,93,30.09,10.0,SSE,8.1,-,N/A,,Overcast,150,2012-02-14 09:56:00
2:56 AM,39.9,37.9,93,30.06,10.0,South,10.4,-,N/A,,Overcast,170,2012-02-14 10:56:00
3:56 AM,39.0,37.0,93,30.04,10.0,SSE,8.1,-,N/A,,Mostly Cloudy,160,2012-02-14 11:56:00
4:56 AM,41.0,37.9,89,30.04,10.0,South,11.5,-,N/A,,Overcast,180,2012-02-14 12:56:00
5:27 AM,41.0,37.4,87,30.03,10.0,South,12.7,-,N/A,,Overcast,180,2012-02-14 13:27:00
5:56 AM,41.0,37.9,89,30.04,10.0,South,9.2,-,N/A,,Overcast,190,2012-02-14 13:56:00
6:20 AM,41.0,37.4,87,30.04,10.0,South,11.5,-,N/A,,Overcast,180,2012-02-14 14:20:00
8:48 AM,42.8,37.4,81,30.02,3.0,SSW,11.5,-,0.00,Rain,Light Rain,210,2012-02-14 16:48:00
9:33 AM,41.0,37.4,87,30.01,10.0,SSW,12.7,-,0.02,,Overcast,200,2012-02-14 17:33:00
9:56 AM,41.0,36.0,82,30.03,10.0,SSW,5.8,-,0.02,Rain,Light Rain,210,2012-02-14 17:56:00
10:56 AM,44.1,37.0,76,30.04,10.0,SW,9.2,-,0.00,Rain,Light Rain,230,2012-02-14 18:56:00
11:14 AM,44.6,37.4,76,30.03,10.0,SSW,10.4,-,0.00,,Mostly Cloudy,200,2012-02-14 19:14:00
11:56 AM,43.0,36.0,76,30.03,10.0,West,4.6,-,0.00,,Overcast,260,2012-02-14 19:56:00
12:43 PM,44.6,35.6,71,30.01,10.0,WNW,6.9,-,0.00,Rain,Light Rain,290,2012-02-14 20:43:00
12:56 PM,39.9,35.1,83,30.01,8.0,SW,9.2,-,0.04,Rain,Light Rain,220,2012-02-14 20:56:00
1:56 PM,44.1,37.9,79,29.99,10.0,South,6.9,-,0.00,,Mostly Cloudy,170,2012-02-14 21:56:00
2:30 PM,44.6,39.2,81,29.99,8.0,SE,4.6,-,0.00,Rain,Light Rain,140,2012-02-14 22:30:00
2:56 PM,43.0,37.0,80,30.01,10.0,NW,10.4,-,0.04,,Mostly Cloudy,310,2012-02-14 22:56:00
3:56 PM,42.1,35.1,76,30.01,10.0,West,11.5,-,N/A,,Mostly Cloudy,270,2012-02-14 23:56:00
5:56 PM,39.9,34.0,79,30.06,10.0,Variable,3.5,-,N/A,,Overcast,0,2012-02-15 01:56:00
6:56 PM,37.9,33.1,83,30.09,10.0,SSW,3.5,-,N/A,,Mostly Cloudy,210,2012-02-15 02:56:00
7:56 PM,37.0,34.0,89,30.11,10.0,South,4.6,-,N/A,,Overcast,180,2012-02-15 03:56:00
8:56 PM,37.9,34.0,86,30.13,10.0,SSE,3.5,-,N/A,,Overcast,160,2012-02-15 04:56:00
9:56 PM,37.0,34.0,89,30.16,10.0,Calm,Calm,-,N/A,,Overcast,0,2012-02-15 05:56:00
10:25 PM,37.4,33.8,87,30.17,10.0,South,3.5,-,N/A,,Overcast,170,2012-02-15 06:25:00
10:53 PM,35.6,33.8,93,30.18,10.0,SE,4.6,-,N/A,,Overcast,140,2012-02-15 06:53:00
10:56 PM,36.0,34.0,93,30.19,10.0,SSE,4.6,-,N/A,,Overcast,150,2012-02-15 06:56:00
11:56 PM,37.0,34.0,89,30.23,10.0,SSE,4.6,-,N/A,,Overcast,160,2012-02-15 07:56:00